CUBESAT XI-IV (CO-57)

Last updated on Fri Oct 31 2025 00:03:08 GMT+0000 (Coordinated Universal Time)

1 27848U 03031J 25302.97605844 .00000410 00000+0 19946-3 0 9997 2 27848 98.6812 309.3373 0010068 146.4241 213.7578 14.23439813158623
UTC large
Height (km)
Speed (km/s)
/
Latitude / Longitude
Inclination (degrees)
Orbital Period (minutes)
Azimuth
Elevation
Range (km)
Doppler Factor

Next 0 passes for location: London (51.5072 / 0.1276)

Sorry there are no passes over London.